Bennington, VT

11:42 AM EDT on May 25, 2018 (GMT -0400)
Morse State

Weather History for KDDH - August, 2013

Change the Weather History Date:

Saturday, August 31, 2013

  Actual Average Record
Temperature  
Mean Temperature 72 °F 64 °F  
Max Temperature 79 °F 75 °F 90 °F (2010)
Min Temperature 64 °F 53 °F 42 °F (1999)
Degree Days  
Heating Degree Days 0 3  
Month to date heating degree days 53 44  
Since 1 June heating degree days 163 169  
Since 1 July heating degree days 63 72  
Cooling Degree Days 7 2  
Month to date cooling degree days 81 93  
Year to date cooling degree days 459 288  
Since 1 June cooling degree days 427 274  
Growing Degree Days 22 (Base 50)    
Moisture  
Dew Point 68 °F    
Average Humidity 87    
Maximum Humidity 100    
Minimum Humidity 74    
Precipitation  
Precipitation 0.94 in 0.11 in 0.94 in (2013)
Month to date precipitation 4.36 4.00  
Year to date precipitation 31.72 27.54  
Sea Level Pressure  
Sea Level Pressure 29.81 in    
Wind  
Wind Speed 2 mph (SW)    
Max Wind Speed 14 mph    
Max Gust Speed 29 mph    
Visibility 4 miles    
Events Rain , Thunderstorm    
T = Trace of Precipitation, MM = Missing Value Source: NWS Daily Summary

Daily Weather History Graph

Daily Weather History Graph

Search for Another Location

Airport or City:

Astronomy

Aug. 31, 2013 Rise Set
Actual Time 6:16 AM EDT 7:28 PM EDT
Civil Twilight 5:47 AM EDT 7:58 PM EDT
Nautical Twilight 5:12 AM EDT 8:32 PM EDT
Astronomical Twilight 4:35 AM EDT 9:09 PM EDT
Moon 1:39 AM EDT (8/31) 4:29 PM EDT (8/31)
Length of Visible Light 14h 10m
Length of Day
13h 12m
Waning Crescent, 21% of the Moon is Illuminated
Aug 31
Waning Crescent
Sep 5
New
Sep 12
First Quarter
Sep 19
Full
Sep 26
Last Quarter

Hourly Weather History & Observations

Time (EDT) Temp. Dew Point Humidity Pressure Visibility Wind Dir Wind Speed Gust Speed Precip Events Conditions
12:54 AM 64.0 °F 62.1 °F 93% 29.81 in 7.0 mi Calm Calm - N/A   Clear
1:34 AM 66.2 °F 64.4 °F 94% 29.81 in 10.0 mi Calm Calm - N/A Thunderstorm Clear
1:51 AM 66.2 °F 64.4 °F 94% 29.81 in 2.0 mi NW 5.8 mph - 0.07 in Rain , Thunderstorm Light Rain
1:54 AM 66.9 °F 64.0 °F 90% 29.81 in 3.0 mi NNW 11.5 mph 19.6 mph 0.08 in Rain , Thunderstorm Rain
2:14 AM 66.2 °F 64.4 °F 94% 29.84 in 2.5 mi North 4.6 mph - 0.17 in Rain , Thunderstorm Heavy Thunderstorms and Rain
2:26 AM 68.0 °F 66.2 °F 94% 29.84 in 5.0 mi Calm Calm - 0.19 in Rain , Thunderstorm Thunderstorms and Rain
2:54 AM 66.9 °F 64.9 °F 93% 29.81 in 5.0 mi Calm Calm - 0.20 in Thunderstorm Overcast
3:13 AM 68.0 °F 66.2 °F 94% 29.84 in 4.0 mi Calm Calm - N/A   Overcast
3:54 AM 68.0 °F 66.0 °F 93% 29.81 in 7.0 mi South 3.5 mph - 0.00 in Rain Light Rain
4:39 AM 66.2 °F 66.2 °F 100% 29.83 in 2.5 mi Calm Calm - 0.03 in Rain Rain
4:47 AM 68.0 °F 66.2 °F 94% 29.83 in 2.0 mi Calm Calm - 0.06 in Rain Rain
4:54 AM 68.0 °F 66.0 °F 93% 29.81 in 1.8 mi Calm Calm - 0.06 in Rain Light Rain
5:01 AM 68.0 °F 66.2 °F 94% 29.82 in 1.8 mi East 3.5 mph - 0.00 in Rain Light Rain
5:04 AM 66.2 °F 66.2 °F 100% 29.82 in 3.0 mi SE 3.5 mph - 0.00 in   Overcast
5:26 AM 68.0 °F 66.2 °F 94% 29.82 in 2.0 mi Calm Calm - 0.08 in Rain , Thunderstorm Light Rain
5:33 AM 66.2 °F 66.2 °F 100% 29.83 in 1.0 mi Calm Calm - 0.16 in Rain , Thunderstorm Heavy Rain
5:46 AM 66.2 °F 66.2 °F 100% 29.83 in 2.0 mi Calm Calm - 0.26 in Rain , Thunderstorm Light Rain
5:49 AM 66.2 °F 66.2 °F 100% 29.83 in 3.0 mi Calm Calm - 0.26 in Rain , Thunderstorm Light Rain
5:54 AM 66.9 °F 66.0 °F 97% 29.81 in 4.0 mi Calm Calm - 0.27 in Rain Light Rain
6:33 AM 68.0 °F 64.4 °F 88% 29.82 in 9.0 mi Calm Calm - 0.00 in   Overcast
6:54 AM 66.9 °F 64.9 °F 93% 29.81 in 6.0 mi Calm Calm - 0.00 in   Overcast
7:54 AM 69.1 °F 66.0 °F 90% 29.81 in 5.0 mi Calm Calm - N/A   Mostly Cloudy
8:05 AM 69.8 °F 66.2 °F 88% 29.82 in 4.0 mi Calm Calm - N/A   Mostly Cloudy
8:54 AM 70.0 °F 68.0 °F 93% 29.81 in 4.0 mi Calm Calm - N/A   Overcast
9:23 AM 71.6 °F 69.8 °F 94% 29.82 in 4.0 mi Calm Calm - 0.00 in Rain Light Rain
9:54 AM 73.9 °F 71.1 °F 91% 29.82 in 5.0 mi Calm Calm - 0.00 in   Scattered Clouds
10:54 AM 75.9 °F 70.0 °F 82% 29.81 in 7.0 mi Variable 6.9 mph - N/A   Scattered Clouds
11:54 AM 79.0 °F 70.0 °F 74% 29.81 in 8.0 mi Calm Calm - N/A   Scattered Clouds
12:09 PM 78.8 °F 69.8 °F 74% 29.81 in 8.0 mi Calm Calm - N/A   Mostly Cloudy
12:54 PM 78.1 °F 71.1 °F 79% 29.80 in 7.0 mi Calm Calm - 0.00 in   Overcast
1:44 PM 78.8 °F 71.6 °F 78% 29.80 in 5.0 mi Calm Calm - 0.00 in Rain Light Rain
1:54 PM 78.1 °F 72.0 °F 81% 29.78 in 6.0 mi Calm Calm - 0.00 in   Haze
2:54 PM 78.1 °F 72.0 °F 81% 29.78 in 4.0 mi Calm Calm - 0.00 in Rain Light Rain
3:25 PM 77.0 °F 73.4 °F 89% 29.79 in 2.5 mi Calm Calm - 0.01 in Rain Light Rain
3:34 PM 75.2 °F 73.4 °F 94% 29.79 in 3.0 mi Calm Calm - 0.01 in Rain Light Rain
3:44 PM 75.2 °F 73.4 °F 94% 29.78 in 2.5 mi Calm Calm - 0.02 in Rain Light Rain
3:54 PM 75.9 °F 73.0 °F 91% 29.77 in 2.5 mi Calm Calm - 0.02 in Rain Light Rain
4:02 PM 75.2 °F 73.4 °F 94% 29.78 in 3.0 mi Calm Calm - 0.00 in   Overcast
4:14 PM 75.2 °F 73.4 °F 94% 29.79 in 2.0 mi Calm Calm - 0.01 in Rain Light Rain
4:19 PM 75.2 °F 71.6 °F 89% 29.79 in 3.0 mi Calm Calm - 0.01 in Rain Light Rain
4:37 PM 75.2 °F 73.4 °F 94% 29.79 in 2.5 mi Calm Calm - 0.01 in Rain Light Rain
4:54 PM 75.0 °F 73.0 °F 94% 29.77 in 2.5 mi Calm Calm - 0.02 in Rain Light Rain
5:02 PM 75.2 °F 73.4 °F 94% 29.78 in 3.0 mi Calm Calm - 0.00 in Rain Light Rain
5:12 PM 75.2 °F 71.6 °F 89% 29.78 in 2.5 mi Calm Calm - 0.00 in Rain Light Rain
5:26 PM 75.2 °F 73.4 °F 94% 29.78 in 1.8 mi Calm Calm - 0.00 in Rain , Thunderstorm Light Rain
5:47 PM 75.2 °F 71.6 °F 89% 29.80 in 2.5 mi SW 11.5 mph 16.1 mph 0.01 in Thunderstorm Overcast
5:54 PM 73.0 °F 68.0 °F 84% 29.78 in 3.0 mi SW 10.4 mph 19.6 mph 0.02 in Rain , Thunderstorm Light Thunderstorms and Rain
6:10 PM 71.6 °F 68.0 °F 88% 29.81 in 1.8 mi SSW 8.1 mph - 0.06 in Rain , Thunderstorm Rain
6:43 PM 69.8 °F 66.2 °F 88% 29.81 in 1.8 mi SW 4.6 mph - 0.26 in Rain Rain
6:50 PM 69.8 °F 66.2 °F 88% 29.80 in 3.0 mi SSW 3.5 mph - 0.26 in Rain Light Rain
6:54 PM 71.1 °F 66.0 °F 84% 29.79 in 4.0 mi South 3.5 mph - 0.27 in Rain Light Rain
7:54 PM 70.0 °F 66.9 °F 90% 29.79 in 6.0 mi Calm Calm - 0.00 in   Mostly Cloudy
8:54 PM 71.1 °F 68.0 °F 90% 29.82 in 7.0 mi Variable 4.6 mph - N/A   Overcast
9:49 PM 69.8 °F 68.0 °F 94% 29.83 in 2.5 mi Calm Calm - N/A   Overcast
9:54 PM 70.0 °F 68.0 °F 93% 29.82 in 1.8 mi Calm Calm - N/A   Overcast
10:02 PM 69.8 °F 68.0 °F 94% 29.84 in 2.5 mi Calm Calm - N/A   Overcast
10:28 PM 69.8 °F 68.0 °F 94% 29.83 in 0.8 mi Calm Calm - N/A   Overcast
10:54 PM 69.1 °F 66.9 °F 93% 29.82 in 1.8 mi Calm Calm - N/A   Overcast
11:01 PM 69.8 °F 68.0 °F 94% 29.84 in 2.5 mi Calm Calm - N/A   Overcast
11:20 PM 69.8 °F 66.2 °F 88% 29.84 in 0.8 mi Calm Calm - N/A   Mostly Cloudy
11:54 PM 69.1 °F 66.9 °F 93% 29.83 in 1.2 mi Calm Calm - N/A   Overcast